Time,TemperatureF,DewpointF,PressureIn,WindDirection,WindDirectionDegrees,WindSpeedMPH,WindSpeedGustMPH,Humidity,HourlyPrecipIn,Conditions,Clouds,dailyrainin,SoftwareType,DateUTC
2013-05-30 00:05:00,70.6,66.9,29.87,SSE,159,6.0,6.0,88,0.00,,,0.00,Wunderground v.1.15,2013-05-30 04:05:00,
2013-05-30 00:15:00,70.8,67.1,29.87,SSE,167,5.0,7.0,88,0.00,,,0.00,Wunderground v.1.15,2013-05-30 04:15:00,
2013-05-30 00:25:00,70.9,66.8,29.87,South,171,6.0,6.0,87,0.00,,,0.00,Wunderground v.1.15,2013-05-30 04:25:00,
2013-05-30 00:35:00,71.5,66.8,29.87,SSE,165,6.0,9.0,85,0.00,,,0.00,Wunderground v.1.15,2013-05-30 04:35:00,
2013-05-30 00:45:00,71.6,66.2,29.88,South,175,5.0,6.0,83,0.00,,,0.00,Wunderground v.1.15,2013-05-30 04:45:00,
2013-05-30 00:55:00,71.5,66.1,29.88,South,174,5.0,6.0,83,0.00,,,0.00,Wunderground v.1.15,2013-05-30 04:55:00,
2013-05-30 01:05:00,70.9,65.8,29.88,South,169,5.0,5.0,84,0.00,,,0.00,Wunderground v.1.15,2013-05-30 05:05:00,
2013-05-30 01:15:00,70.9,65.5,29.88,South,172,5.0,5.0,83,0.00,,,0.00,Wunderground v.1.15,2013-05-30 05:15:00,
2013-05-30 01:25:00,70.8,65.4,29.89,South,178,5.0,6.0,83,0.00,,,0.00,Wunderground v.1.15,2013-05-30 05:25:00,
2013-05-30 01:35:00,70.9,65.1,29.89,South,186,5.0,5.0,82,0.00,,,0.00,Wunderground v.1.15,2013-05-30 05:35:00,
2013-05-30 01:45:00,70.9,64.8,29.89,SSW,198,5.0,5.0,81,0.00,,,0.00,Wunderground v.1.15,2013-05-30 05:45:00,
2013-05-30 01:55:00,71.1,64.3,29.89,SSW,196,5.0,6.0,79,0.00,,,0.00,Wunderground v.1.15,2013-05-30 05:55:00,
2013-05-30 02:05:00,71.3,64.1,29.89,SSW,194,4.0,4.0,78,0.00,,,0.00,Wunderground v.1.15,2013-05-30 06:05:00,
2013-05-30 02:15:00,71.3,64.1,29.89,SSW,198,4.0,5.0,78,0.00,,,0.00,Wunderground v.1.15,2013-05-30 06:15:00,
2013-05-30 02:25:00,71.1,63.5,29.90,SSW,195,4.0,4.0,77,0.00,,,0.00,Wunderground v.1.15,2013-05-30 06:25:00,
2013-05-30 02:35:00,71.1,63.1,29.90,SSW,195,4.0,4.0,76,0.00,,,0.00,Wunderground v.1.15,2013-05-30 06:35:00,
2013-05-30 02:45:00,71.3,63.3,29.90,South,189,5.0,5.0,76,0.00,,,0.00,Wunderground v.1.15,2013-05-30 06:45:00,
2013-05-30 02:55:00,70.9,63.3,29.90,SSW,193,4.0,4.0,77,0.00,,,0.00,Wunderground v.1.15,2013-05-30 06:55:00,
2013-05-30 03:05:00,70.8,63.2,29.90,SSW,194,4.0,4.0,77,0.00,,,0.00,Wunderground v.1.15,2013-05-30 07:05:00,
2013-05-30 03:15:00,70.8,62.9,29.90,SSW,197,4.0,4.0,76,0.00,,,0.00,Wunderground v.1.15,2013-05-30 07:15:00,
2013-05-30 03:25:00,70.8,63.2,29.89,SSW,192,4.0,4.0,77,0.00,,,0.00,Wunderground v.1.15,2013-05-30 07:25:00,
2013-05-30 03:35:00,70.8,62.9,29.89,SSW,192,4.0,5.0,76,0.00,,,0.00,Wunderground v.1.15,2013-05-30 07:35:00,
2013-05-30 03:45:00,70.8,63.2,29.89,South,184,4.0,5.0,77,0.00,,,0.00,Wunderground v.1.15,2013-05-30 07:45:00,
2013-05-30 03:55:00,70.4,62.8,29.89,South,186,4.0,4.0,77,0.00,,,0.00,Wunderground v.1.15,2013-05-30 07:55:00,
2013-05-30 04:05:00,70.4,62.8,29.89,South,180,4.0,5.0,77,0.00,,,0.00,Wunderground v.1.15,2013-05-30 08:05:00,
2013-05-30 04:15:00,70.4,62.8,29.88,South,173,5.0,5.0,77,0.00,,,0.00,Wunderground v.1.15,2013-05-30 08:15:00,
2013-05-30 04:25:00,70.3,62.7,29.88,South,175,5.0,5.0,77,0.00,,,0.00,Wunderground v.1.15,2013-05-30 08:25:00,
2013-05-30 04:35:00,70.1,62.9,29.88,South,174,5.0,5.0,78,0.00,,,0.00,Wunderground v.1.15,2013-05-30 08:35:00,
2013-05-30 04:45:00,69.6,62.8,29.88,South,174,4.0,4.0,79,0.00,,,0.00,Wunderground v.1.15,2013-05-30 08:45:00,
2013-05-30 04:55:00,69.1,62.7,29.88,South,174,4.0,4.0,80,0.00,,,0.00,Wunderground v.1.15,2013-05-30 08:55:00,
2013-05-30 05:05:00,69.1,63.0,29.88,South,175,4.0,4.0,81,0.00,,,0.00,Wunderground v.1.15,2013-05-30 09:05:00,
2013-05-30 05:15:00,69.1,63.0,29.88,SSE,164,5.0,5.0,81,0.00,,,0.00,Wunderground v.1.15,2013-05-30 09:15:00,
2013-05-30 05:25:00,69.4,63.0,29.89,South,172,5.0,7.0,80,0.00,,,0.00,Wunderground v.1.15,2013-05-30 09:25:00,
2013-05-30 05:35:00,69.3,62.9,29.89,South,171,6.0,6.0,80,0.00,,,0.00,Wunderground v.1.15,2013-05-30 09:35:00,
2013-05-30 05:45:00,69.3,63.2,29.89,South,169,6.0,6.0,81,0.00,,,0.00,Wunderground v.1.15,2013-05-30 09:45:00,
2013-05-30 05:55:00,69.3,62.9,29.90,South,173,6.0,6.0,80,0.00,,,0.00,Wunderground v.1.15,2013-05-30 09:55:00,
2013-05-30 06:05:00,69.3,63.2,29.90,South,176,6.0,6.0,81,0.00,,,0.00,Wunderground v.1.15,2013-05-30 10:05:00,
2013-05-30 06:15:00,69.1,63.0,29.90,South,175,6.0,6.0,81,0.00,,,0.00,Wunderground v.1.15,2013-05-30 10:15:00,
2013-05-30 06:25:00,69.3,63.2,29.90,South,175,6.0,6.0,81,0.00,,,0.00,Wunderground v.1.15,2013-05-30 10:25:00,
2013-05-30 06:35:00,69.6,63.2,29.90,South,173,6.0,6.0,80,0.00,,,0.00,Wunderground v.1.15,2013-05-30 10:35:00,
2013-05-30 06:45:00,69.1,63.0,29.90,South,169,5.0,6.0,81,0.00,,,0.00,Wunderground v.1.15,2013-05-30 10:45:00,
2013-05-30 06:55:00,68.9,63.2,29.91,South,173,5.0,5.0,82,0.00,,,0.00,Wunderground v.1.15,2013-05-30 10:55:00,
2013-05-30 07:05:00,69.1,63.7,29.91,South,171,5.0,6.0,83,0.00,,,0.00,Wunderground v.1.15,2013-05-30 11:05:00,
2013-05-30 07:15:00,69.6,63.9,29.91,South,176,6.0,6.0,82,0.00,,,0.00,Wunderground v.1.15,2013-05-30 11:15:00,
2013-05-30 07:25:00,70.3,64.2,29.90,South,174,6.0,6.0,81,0.00,,,0.00,Wunderground v.1.15,2013-05-30 11:25:00,
2013-05-30 07:45:00,71.5,65.0,29.90,South,181,7.0,7.0,80,0.00,,,0.00,Wunderground v.1.15,2013-05-30 11:45:00,
2013-05-30 07:55:00,71.3,65.2,29.90,South,186,5.0,8.0,81,0.00,,,0.00,Wunderground v.1.15,2013-05-30 11:55:00,
2013-05-30 08:05:00,71.6,65.5,29.90,South,173,5.0,8.0,81,0.00,,,0.00,Wunderground v.1.15,2013-05-30 12:05:00,
2013-05-30 08:15:00,72.1,65.6,29.90,South,172,7.0,8.0,80,0.00,,,0.00,Wunderground v.1.15,2013-05-30 12:15:00,
2013-05-30 08:25:00,72.5,66.3,29.90,South,175,6.0,9.0,81,0.00,,,0.00,Wunderground v.1.15,2013-05-30 12:25:00,
2013-05-30 08:35:00,73.0,66.8,29.90,South,169,5.0,9.0,81,0.00,,,0.00,Wunderground v.1.15,2013-05-30 12:35:00,
2013-05-30 08:45:00,73.9,67.0,29.90,South,186,6.0,6.0,79,0.00,,,0.00,Wunderground v.1.15,2013-05-30 12:45:00,
2013-05-30 08:55:00,74.7,67.0,29.90,South,177,5.0,6.0,77,0.00,,,0.00,Wunderground v.1.15,2013-05-30 12:55:00,
2013-05-30 09:05:00,75.6,67.9,29.90,SSE,161,7.0,8.0,77,0.00,,,0.00,Wunderground v.1.15,2013-05-30 13:05:00,
2013-05-30 09:15:00,76.1,67.6,29.90,South,184,7.0,8.0,75,0.00,,,0.00,Wunderground v.1.15,2013-05-30 13:15:00,
2013-05-30 09:25:00,76.7,68.2,29.90,SSW,204,8.0,8.0,75,0.00,,,0.00,Wunderground v.1.15,2013-05-30 13:25:00,
2013-05-30 09:35:00,77.2,67.9,29.90,South,184,7.0,7.0,73,0.00,,,0.00,Wunderground v.1.15,2013-05-30 13:35:00,
2013-05-30 09:45:00,77.7,68.4,29.90,SSW,201,8.0,11.0,73,0.00,,,0.00,Wunderground v.1.15,2013-05-30 13:45:00,
2013-05-30 09:55:00,78.1,69.5,29.90,South,173,8.0,8.0,75,0.00,,,0.00,Wunderground v.1.15,2013-05-30 13:55:00,
2013-05-30 10:05:00,78.6,69.6,29.90,SSW,200,8.0,8.0,74,0.00,,,0.00,Wunderground v.1.15,2013-05-30 14:05:00,
2013-05-30 10:15:00,78.8,69.0,29.90,WSW,248,8.0,8.0,72,0.00,,,0.00,Wunderground v.1.15,2013-05-30 14:15:00,
2013-05-30 10:25:00,79.4,69.6,29.89,South,170,8.0,10.0,72,0.00,,,0.00,Wunderground v.1.15,2013-05-30 14:25:00,
2013-05-30 10:35:00,79.9,69.7,29.89,SSW,211,7.0,7.0,71,0.00,,,0.00,Wunderground v.1.15,2013-05-30 14:35:00,
2013-05-30 10:45:00,80.1,69.8,29.89,SSW,206,8.0,8.0,71,0.00,,,0.00,Wunderground v.1.15,2013-05-30 14:45:00,
2013-05-30 10:55:00,80.3,69.6,29.89,South,191,8.0,8.0,70,0.00,,,0.00,Wunderground v.1.15,2013-05-30 14:55:00,
2013-05-30 11:05:00,80.7,70.4,29.89,SSW,198,9.0,13.0,71,0.00,,,0.00,Wunderground v.1.15,2013-05-30 15:05:00,
2013-05-30 11:15:00,80.3,70.0,29.89,SSW,193,9.0,9.0,71,0.00,,,0.00,Wunderground v.1.15,2013-05-30 15:15:00,
2013-05-30 11:25:00,79.9,68.8,29.89,SW,219,9.0,9.0,69,0.00,,,0.00,Wunderground v.1.15,2013-05-30 15:25:00,
2013-05-30 11:35:00,79.9,70.1,29.89,SSW,197,9.0,10.0,72,0.00,,,0.00,Wunderground v.1.15,2013-05-30 15:35:00,
2013-05-30 11:45:00,80.1,70.3,29.89,South,184,8.0,8.0,72,0.00,,,0.00,Wunderground v.1.15,2013-05-30 15:45:00,
2013-05-30 11:55:00,79.8,70.0,29.89,South,191,9.0,9.0,72,0.00,,,0.00,Wunderground v.1.15,2013-05-30 15:55:00,
2013-05-30 12:05:00,79.9,70.9,29.89,SSW,203,6.0,9.0,74,0.00,,,0.00,Wunderground v.1.15,2013-05-30 16:05:00,
2013-05-30 12:15:00,81.1,71.6,29.89,SW,221,8.0,8.0,73,0.00,,,0.00,Wunderground v.1.15,2013-05-30 16:15:00,
2013-05-30 12:25:00,80.9,70.6,29.89,South,189,8.0,9.0,71,0.00,,,0.00,Wunderground v.1.15,2013-05-30 16:25:00,
2013-05-30 12:35:00,80.7,70.8,29.89,South,183,7.0,7.0,72,0.00,,,0.00,Wunderground v.1.15,2013-05-30 16:35:00,
2013-05-30 12:45:00,81.1,71.2,29.89,SSE,148,7.0,7.0,72,0.00,,,0.00,Wunderground v.1.15,2013-05-30 16:45:00,
2013-05-30 12:55:00,82.0,70.4,29.89,SSW,201,9.0,9.0,68,0.00,,,0.00,Wunderground v.1.15,2013-05-30 16:55:00,
2013-05-30 13:05:00,81.8,70.2,29.89,SSW,192,8.0,9.0,68,0.00,,,0.00,Wunderground v.1.15,2013-05-30 17:05:00,
2013-05-30 13:15:00,81.4,70.2,29.89,SSW,199,7.0,7.0,69,0.00,,,0.00,Wunderground v.1.15,2013-05-30 17:15:00,
2013-05-30 13:25:00,81.1,70.8,29.88,SSE,155,9.0,10.0,71,0.00,,,0.00,Wunderground v.1.15,2013-05-30 17:25:00,
2013-05-30 13:35:00,81.2,71.7,29.88,SSE,152,10.0,10.0,73,0.00,,,0.00,Wunderground v.1.15,2013-05-30 17:35:00,
2013-05-30 13:45:00,81.1,70.8,29.88,South,175,8.0,8.0,71,0.00,,,0.00,Wunderground v.1.15,2013-05-30 17:45:00,
2013-05-30 13:55:00,81.8,70.2,29.88,SSW,192,7.0,11.0,68,0.00,,,0.00,Wunderground v.1.15,2013-05-30 17:55:00,
2013-05-30 14:05:00,82.0,70.8,29.88,South,178,10.0,10.0,69,0.00,,,0.00,Wunderground v.1.15,2013-05-30 18:05:00,
2013-05-30 14:15:00,82.8,70.3,29.88,SSW,196,8.0,8.0,66,0.00,,,0.00,Wunderground v.1.15,2013-05-30 18:15:00,
2013-05-30 14:25:00,81.8,70.2,29.86,SSE,160,8.0,14.0,68,0.00,,,0.00,Wunderground v.1.15,2013-05-30 18:25:00,
2013-05-30 14:35:00,81.6,70.9,29.86,SSW,193,10.0,10.0,70,0.00,,,0.00,Wunderground v.1.15,2013-05-30 18:35:00,
2013-05-30 14:45:00,82.4,69.0,29.86,SSW,199,9.0,9.0,64,0.00,,,0.00,Wunderground v.1.15,2013-05-30 18:45:00,
2013-05-30 14:55:00,81.8,67.0,29.86,SW,215,12.0,12.0,61,0.00,,,0.00,Wunderground v.1.15,2013-05-30 18:55:00,
2013-05-30 15:05:00,82.8,70.3,29.86,SSW,207,9.0,9.0,66,0.00,,,0.00,Wunderground v.1.15,2013-05-30 19:05:00,
2013-05-30 15:15:00,81.8,69.3,29.86,SSW,206,11.0,11.0,66,0.00,,,0.00,Wunderground v.1.15,2013-05-30 19:15:00,
2013-05-30 15:25:00,81.6,70.0,29.86,SSW,195,10.0,10.0,68,0.00,,,0.00,Wunderground v.1.15,2013-05-30 19:25:00,
2013-05-30 15:35:00,83.0,71.8,29.86,South,179,9.0,9.0,69,0.00,,,0.00,Wunderground v.1.15,2013-05-30 19:35:00,
2013-05-30 15:45:00,82.6,69.2,29.85,South,176,9.0,9.0,64,0.00,,,0.00,Wunderground v.1.15,2013-05-30 19:45:00,
2013-05-30 15:55:00,82.8,70.3,29.84,SSW,196,12.0,12.0,66,0.00,,,0.00,Wunderground v.1.15,2013-05-30 19:55:00,
2013-05-30 16:05:00,82.8,69.4,29.84,South,179,12.0,13.0,64,0.00,,,0.00,Wunderground v.1.15,2013-05-30 20:05:00,
2013-05-30 16:15:00,82.4,68.1,29.83,SW,229,11.0,11.0,62,0.00,,,0.00,Wunderground v.1.15,2013-05-30 20:15:00,
2013-05-30 16:25:00,83.2,68.3,29.83,SSW,211,11.0,11.0,61,0.00,,,0.00,Wunderground v.1.15,2013-05-30 20:25:00,
2013-05-30 16:35:00,83.2,69.3,29.83,SSW,210,10.0,10.0,63,0.00,,,0.00,Wunderground v.1.15,2013-05-30 20:35:00,
2013-05-30 16:45:00,82.6,69.6,29.83,South,179,8.0,8.0,65,0.00,,,0.00,Wunderground v.1.15,2013-05-30 20:45:00,
2013-05-30 16:55:00,82.6,70.1,29.81,SSW,192,9.0,9.0,66,0.00,,,0.00,Wunderground v.1.15,2013-05-30 20:55:00,
2013-05-30 17:05:00,83.8,70.3,29.81,South,176,8.0,8.0,64,0.00,,,0.00,Wunderground v.1.15,2013-05-30 21:05:00,
2013-05-30 17:15:00,83.2,68.8,29.82,SSW,206,9.0,11.0,62,0.00,,,0.00,Wunderground v.1.15,2013-05-30 21:15:00,
2013-05-30 17:25:00,82.8,68.0,29.81,SSW,207,11.0,15.0,61,0.00,,,0.00,Wunderground v.1.15,2013-05-30 21:25:00,
2013-05-30 17:35:00,84.0,67.6,29.81,SSW,209,11.0,11.0,58,0.00,,,0.00,Wunderground v.1.15,2013-05-30 21:35:00,
2013-05-30 17:45:00,84.0,68.1,29.80,South,174,11.0,11.0,59,0.00,,,0.00,Wunderground v.1.15,2013-05-30 21:45:00,
2013-05-30 17:55:00,83.8,67.4,29.80,SSW,198,10.0,10.0,58,0.00,,,0.00,Wunderground v.1.15,2013-05-30 21:55:00,
2013-05-30 18:05:00,84.3,69.4,29.80,SW,225,9.0,9.0,61,0.00,,,0.00,Wunderground v.1.15,2013-05-30 22:05:00,
2013-05-30 18:15:00,83.6,67.8,29.79,SSW,192,10.0,13.0,59,0.00,,,0.00,Wunderground v.1.15,2013-05-30 22:15:00,
2013-05-30 18:25:00,83.4,67.1,29.79,SSE,161,11.0,11.0,58,0.00,,,0.00,Wunderground v.1.15,2013-05-30 22:25:00,
2013-05-30 18:35:00,83.4,68.5,29.79,South,174,8.0,9.0,61,0.00,,,0.00,Wunderground v.1.15,2013-05-30 22:35:00,
2013-05-30 18:45:00,83.0,68.2,29.80,South,176,9.0,12.0,61,0.00,,,0.00,Wunderground v.1.15,2013-05-30 22:45:00,
2013-05-30 18:55:00,82.6,67.3,29.80,South,188,10.0,10.0,60,0.00,,,0.00,Wunderground v.1.15,2013-05-30 22:55:00,
2013-05-30 19:05:00,82.2,67.9,29.80,South,177,8.0,8.0,62,0.00,,,0.00,Wunderground v.1.15,2013-05-30 23:05:00,
2013-05-30 19:15:00,82.0,67.2,29.81,South,188,9.0,9.0,61,0.00,,,0.00,Wunderground v.1.15,2013-05-30 23:15:00,
2013-05-30 19:25:00,81.6,67.8,29.80,South,178,7.0,7.0,63,0.00,,,0.00,Wunderground v.1.15,2013-05-30 23:25:00,
2013-05-30 19:35:00,82.0,68.2,29.80,SSE,166,6.0,6.0,63,0.00,,,0.00,Wunderground v.1.15,2013-05-30 23:35:00,
2013-05-30 19:45:00,82.0,67.7,29.80,South,171,9.0,11.0,62,0.00,,,0.00,Wunderground v.1.15,2013-05-30 23:45:00,
2013-05-30 19:55:00,81.1,68.7,29.81,SW,215,10.0,11.0,66,0.00,,,0.00,Wunderground v.1.15,2013-05-30 23:55:00,
2013-05-30 20:05:00,79.9,67.5,29.81,SSW,196,8.0,8.0,66,0.00,,,0.00,Wunderground v.1.15,2013-05-31 00:05:00,
2013-05-30 20:15:00,79.0,68.4,29.81,South,190,7.0,7.0,70,0.00,,,0.00,Wunderground v.1.15,2013-05-31 00:15:00,
2013-05-30 20:25:00,78.5,68.3,29.81,South,173,5.0,6.0,71,0.00,,,0.00,Wunderground v.1.15,2013-05-31 00:25:00,
2013-05-30 20:35:00,78.1,68.3,29.81,SSE,165,6.0,6.0,72,0.00,,,0.00,Wunderground v.1.15,2013-05-31 00:35:00,
2013-05-30 20:45:00,77.2,67.9,29.81,SSE,157,6.0,7.0,73,0.00,,,0.00,Wunderground v.1.15,2013-05-31 00:45:00,
2013-05-30 20:55:00,77.0,68.1,29.79,South,169,9.0,9.0,74,0.00,,,0.00,Wunderground v.1.15,2013-05-31 00:55:00,
2013-05-30 21:05:00,76.7,68.2,29.79,SSE,153,9.0,9.0,75,0.00,,,0.00,Wunderground v.1.15,2013-05-31 01:05:00,
2013-05-30 21:15:00,76.1,68.0,29.79,SSE,158,8.0,8.0,76,0.00,,,0.00,Wunderground v.1.15,2013-05-31 01:15:00,
2013-05-30 21:25:00,75.8,68.1,29.79,SSE,155,8.0,8.0,77,0.00,,,0.00,Wunderground v.1.15,2013-05-31 01:25:00,
2013-05-30 21:35:00,75.4,68.1,29.79,SSE,149,9.0,9.0,78,0.00,,,0.00,Wunderground v.1.15,2013-05-31 01:35:00,
2013-05-30 21:45:00,75.8,68.4,29.79,SSE,148,11.0,17.0,78,0.00,,,0.00,Wunderground v.1.15,2013-05-31 01:45:00,
2013-05-30 21:55:00,75.8,68.1,29.81,SE,144,11.0,12.0,77,0.00,,,0.00,Wunderground v.1.15,2013-05-31 01:55:00,
2013-05-30 22:05:00,76.0,68.3,29.81,SSE,162,9.0,9.0,77,0.00,,,0.00,Wunderground v.1.15,2013-05-31 02:05:00,
2013-05-30 22:15:00,76.3,68.2,29.82,South,177,7.0,7.0,76,0.00,,,0.00,Wunderground v.1.15,2013-05-31 02:15:00,
2013-05-30 22:25:00,76.3,68.2,29.83,SSE,158,8.0,8.0,76,0.00,,,0.00,Wunderground v.1.15,2013-05-31 02:25:00,
2013-05-30 22:35:00,76.5,68.4,29.83,SSE,157,8.0,9.0,76,0.00,,,0.00,Wunderground v.1.15,2013-05-31 02:35:00,
2013-05-30 22:45:00,76.3,68.2,29.83,SSE,163,7.0,7.0,76,0.00,,,0.00,Wunderground v.1.15,2013-05-31 02:45:00,
2013-05-30 22:55:00,76.0,68.3,29.83,SSE,161,7.0,10.0,77,0.00,,,0.00,Wunderground v.1.15,2013-05-31 02:55:00,
2013-05-30 23:05:00,75.6,67.9,29.83,SSE,157,7.0,8.0,77,0.00,,,0.00,Wunderground v.1.15,2013-05-31 03:05:00,
2013-05-30 23:15:00,75.3,68.0,29.84,SSE,150,7.0,9.0,78,0.00,,,0.00,Wunderground v.1.15,2013-05-31 03:15:00,
2013-05-30 23:25:00,74.7,67.8,29.84,SSE,154,7.0,7.0,79,0.00,,,0.00,Wunderground v.1.15,2013-05-31 03:25:00,
2013-05-30 23:35:00,75.1,68.1,29.84,SSE,153,8.0,9.0,79,0.00,,,0.00,Wunderground v.1.15,2013-05-31 03:35:00,
2013-05-30 23:45:00,75.3,68.0,29.84,SSE,167,8.0,8.0,78,0.00,,,0.00,Wunderground v.1.15,2013-05-31 03:45:00,
2013-05-30 23:55:00,75.8,67.7,29.83,South,169,10.0,11.0,76,0.00,,,0.00,Wunderground v.1.15,2013-05-31 03:55:00,